Time,TemperatureF,DewpointF,PressureIn,WindDirection,WindDirectionDegrees,WindSpeedMPH,WindSpeedGustMPH,Humidity,HourlyPrecipIn,Conditions,Clouds,dailyrainin,SoftwareType,DateUTC
2013-12-21 00:06:00,56.5,51.4,29.67,SW,225,5.3,-999.0,83,-99.99,,,0.00,Acu-Link.com,2013-12-21 05:06:00,
2013-12-21 00:22:00,56.7,51.6,29.67,South,180,7.8,-999.0,83,-99.99,,,0.00,Acu-Link.com,2013-12-21 05:22:00,
2013-12-21 00:37:00,57.0,51.6,29.66,SW,225,6.3,-999.0,82,-99.99,,,0.00,Acu-Link.com,2013-12-21 05:37:00,
2013-12-21 00:52:00,57.0,51.6,29.66,West,270,4.7,-999.0,82,-99.99,,,0.00,Acu-Link.com,2013-12-21 05:52:00,
2013-12-21 01:07:00,57.4,51.9,29.67,South,180,3.7,-999.0,82,-99.99,,,0.00,Acu-Link.com,2013-12-21 06:07:00,
2013-12-21 01:22:00,57.6,52.1,29.67,SSW,202,3.7,-999.0,82,-99.99,,,0.00,Acu-Link.com,2013-12-21 06:22:00,
2013-12-21 01:37:00,57.7,51.9,29.67,South,180,6.3,-999.0,81,-99.99,,,0.00,Acu-Link.com,2013-12-21 06:37:00,
2013-12-21 01:53:00,57.7,51.9,29.67,SW,225,7.3,-999.0,81,-99.99,,,0.00,Acu-Link.com,2013-12-21 06:53:00,
2013-12-21 02:08:00,57.7,52.2,29.66,SW,225,4.7,-999.0,82,-99.99,,,0.00,Acu-Link.com,2013-12-21 07:08:00,
2013-12-21 02:23:00,58.1,52.6,29.66,SSW,202,4.2,-999.0,82,-99.99,,,0.00,Acu-Link.com,2013-12-21 07:23:00,
2013-12-21 02:38:00,58.1,53.0,29.66,SSE,157,4.7,-999.0,83,-99.99,,,0.00,Acu-Link.com,2013-12-21 07:38:00,
2013-12-21 02:53:00,58.6,53.5,29.67,SSE,157,4.7,-999.0,83,-99.99,,,0.00,Acu-Link.com,2013-12-21 07:53:00,
2013-12-21 03:08:00,59.0,53.8,29.66,South,180,8.9,-999.0,83,-99.99,,,0.00,Acu-Link.com,2013-12-21 08:08:00,
2013-12-21 03:24:00,59.0,54.2,29.65,SSE,157,5.8,-999.0,84,-99.99,,,0.00,Acu-Link.com,2013-12-21 08:24:00,
2013-12-21 03:39:00,59.0,54.2,29.64,South,180,4.7,-999.0,84,-99.99,,,0.00,Acu-Link.com,2013-12-21 08:39:00,
2013-12-21 03:54:00,59.4,54.9,29.65,SSE,157,5.8,-999.0,85,-99.99,,,0.00,Acu-Link.com,2013-12-21 08:54:00,
2013-12-21 04:25:00,59.0,54.8,29.65,SSE,157,6.3,-999.0,86,-99.99,,,0.00,Acu-Link.com,2013-12-21 09:25:00,
2013-12-21 04:40:00,58.8,54.9,29.65,SSE,157,4.2,-999.0,87,-99.99,,,0.00,Acu-Link.com,2013-12-21 09:40:00,
2013-12-21 04:56:00,58.5,55.0,29.64,SW,225,5.8,-999.0,88,-99.99,,,0.00,Acu-Link.com,2013-12-21 09:56:00,
2013-12-21 05:11:00,57.7,55.1,29.63,South,180,5.8,-999.0,91,-99.99,,,0.00,Acu-Link.com,2013-12-21 10:11:00,
2013-12-21 05:26:00,57.0,55.6,29.64,South,180,5.3,-999.0,95,-99.99,,,0.02,Acu-Link.com,2013-12-21 10:26:00,
2013-12-21 05:41:00,56.8,55.7,29.63,SSE,157,5.3,-999.0,96,-99.99,,,0.02,Acu-Link.com,2013-12-21 10:41:00,
2013-12-21 05:56:00,56.7,55.9,29.63,SE,135,5.8,-999.0,97,-99.99,,,0.10,Acu-Link.com,2013-12-21 10:56:00,
2013-12-21 06:11:00,56.7,56.1,29.62,ESE,112,4.2,-999.0,98,-99.99,,,0.16,Acu-Link.com,2013-12-21 11:11:00,
2013-12-21 06:27:00,56.5,56.2,29.61,South,180,3.2,-999.0,99,-99.99,,,0.22,Acu-Link.com,2013-12-21 11:27:00,
2013-12-21 06:42:00,56.5,56.2,29.61,SSE,157,4.7,-999.0,99,-99.99,,,0.29,Acu-Link.com,2013-12-21 11:42:00,
2013-12-21 06:57:00,56.5,56.2,29.61,SSE,157,4.2,-999.0,99,-99.99,,,0.37,Acu-Link.com,2013-12-21 11:57:00,
2013-12-21 07:12:00,56.7,56.4,29.61,SE,135,4.7,-999.0,99,-99.99,,,0.59,Acu-Link.com,2013-12-21 12:12:00,
2013-12-21 07:28:00,56.7,56.4,29.61,SSW,202,4.7,-999.0,99,-99.99,,,0.59,Acu-Link.com,2013-12-21 12:28:00,
2013-12-21 07:43:00,57.2,56.9,29.61,SSE,157,8.9,-999.0,99,-99.99,,,0.59,Acu-Link.com,2013-12-21 12:43:00,
2013-12-21 07:58:00,57.6,57.3,29.61,SSW,202,6.8,-999.0,99,-99.99,,,0.60,Acu-Link.com,2013-12-21 12:58:00,
2013-12-21 08:13:00,57.6,57.3,29.60,SSE,157,4.7,-999.0,99,-99.99,,,0.60,Acu-Link.com,2013-12-21 13:13:00,
2013-12-21 08:28:00,58.1,57.5,29.59,SW,225,4.7,-999.0,98,-99.99,,,0.60,Acu-Link.com,2013-12-21 13:28:00,
2013-12-21 08:44:00,58.3,57.5,29.58,SSE,157,5.3,-999.0,97,-99.99,,,0.60,Acu-Link.com,2013-12-21 13:44:00,
2013-12-21 08:59:00,58.6,57.5,29.57,SW,225,7.3,-999.0,96,-99.99,,,0.60,Acu-Link.com,2013-12-21 13:59:00,
2013-12-21 09:14:00,59.4,57.7,29.57,SSW,202,6.8,-999.0,94,-99.99,,,0.60,Acu-Link.com,2013-12-21 14:14:00,
2013-12-21 09:29:00,60.4,58.1,29.56,SSE,157,13.5,-999.0,92,-99.99,,,0.60,Acu-Link.com,2013-12-21 14:29:00,
2013-12-21 09:44:00,61.3,58.3,29.55,ESE,112,5.8,-999.0,90,-99.99,,,0.60,Acu-Link.com,2013-12-21 14:44:00,
2013-12-21 09:59:00,62.4,58.8,29.56,SE,135,7.8,-999.0,88,-99.99,,,0.60,Acu-Link.com,2013-12-21 14:59:00,
2013-12-21 10:14:00,63.1,59.5,29.55,South,180,10.4,-999.0,88,-99.99,,,0.60,Acu-Link.com,2013-12-21 15:14:00,
2013-12-21 10:29:00,64.6,60.3,29.56,SW,225,9.9,-999.0,86,-99.99,,,0.60,Acu-Link.com,2013-12-21 15:29:00,
2013-12-21 10:45:00,65.8,60.8,29.56,South,180,9.4,-999.0,84,-99.99,,,0.60,Acu-Link.com,2013-12-21 15:45:00,
2013-12-21 11:00:00,65.7,60.7,29.56,South,180,7.3,-999.0,84,-99.99,,,0.60,Acu-Link.com,2013-12-21 16:00:00,
2013-12-21 11:15:00,65.5,60.9,29.56,SSW,202,8.9,-999.0,85,-99.99,,,0.60,Acu-Link.com,2013-12-21 16:15:00,
2013-12-21 11:30:00,65.5,60.9,29.57,SSE,157,6.8,-999.0,85,-99.99,,,0.60,Acu-Link.com,2013-12-21 16:30:00,
2013-12-21 11:45:00,65.5,61.2,29.55,WNW,292,6.8,-999.0,86,-99.99,,,0.60,Acu-Link.com,2013-12-21 16:45:00,
2013-12-21 12:00:00,65.3,61.3,29.55,SW,225,6.3,-999.0,87,-99.99,,,0.60,Acu-Link.com,2013-12-21 17:00:00,
2013-12-21 12:16:00,66.0,61.4,29.55,SW,225,6.3,-999.0,85,-99.99,,,0.60,Acu-Link.com,2013-12-21 17:16:00,
2013-12-21 12:31:00,66.0,61.4,29.55,SE,135,5.3,-999.0,85,-99.99,,,0.60,Acu-Link.com,2013-12-21 17:31:00,
2013-12-21 12:46:00,66.0,61.4,29.54,SSW,202,6.8,-999.0,85,-99.99,,,0.60,Acu-Link.com,2013-12-21 17:46:00,
2013-12-21 13:01:00,66.6,61.9,29.53,SW,225,3.7,-999.0,85,-99.99,,,0.60,Acu-Link.com,2013-12-21 18:01:00,
2013-12-21 13:16:00,66.7,62.0,29.53,SSE,157,7.3,-999.0,85,-99.99,,,0.60,Acu-Link.com,2013-12-21 18:16:00,
2013-12-21 13:31:00,66.6,61.9,29.53,SW,225,4.7,-999.0,85,-99.99,,,0.60,Acu-Link.com,2013-12-21 18:31:00,
2013-12-21 13:46:00,66.4,61.7,29.53,SSE,157,4.7,-999.0,85,-99.99,,,0.60,Acu-Link.com,2013-12-21 18:46:00,
2013-12-21 14:01:00,66.4,62.1,29.53,SW,225,3.7,-999.0,86,-99.99,,,0.60,Acu-Link.com,2013-12-21 19:01:00,
2013-12-21 14:16:00,66.9,62.6,29.54,West,270,5.8,-999.0,86,-99.99,,,0.60,Acu-Link.com,2013-12-21 19:16:00,
2013-12-21 14:31:00,66.4,63.1,29.53,South,180,9.9,-999.0,89,-99.99,,,0.60,Acu-Link.com,2013-12-21 19:31:00,
2013-12-21 14:47:00,65.7,63.0,29.54,WSW,247,11.9,-999.0,91,-99.99,,,0.60,Acu-Link.com,2013-12-21 19:47:00,
2013-12-21 15:02:00,65.7,63.3,29.53,SSW,202,5.8,-999.0,92,-99.99,,,0.60,Acu-Link.com,2013-12-21 20:02:00,
2013-12-21 15:17:00,65.8,63.1,29.53,SSW,202,6.3,-999.0,91,-99.99,,,0.60,Acu-Link.com,2013-12-21 20:17:00,
2013-12-21 15:32:00,65.7,63.0,29.53,SE,135,8.3,-999.0,91,-99.99,,,0.60,Acu-Link.com,2013-12-21 20:32:00,
2013-12-21 15:48:00,64.9,63.1,29.51,SSW,202,5.8,-999.0,94,-99.99,,,0.60,Acu-Link.com,2013-12-21 20:48:00,
2013-12-21 16:03:00,65.1,63.0,29.52,SSW,202,6.3,-999.0,93,-99.99,,,0.60,Acu-Link.com,2013-12-21 21:03:00,
2013-12-21 16:18:00,65.5,62.8,29.51,South,180,5.8,-999.0,91,-99.99,,,0.60,Acu-Link.com,2013-12-21 21:18:00,
2013-12-21 16:33:00,64.9,62.5,29.51,SW,225,2.7,-999.0,92,-99.99,,,0.60,Acu-Link.com,2013-12-21 21:33:00,
2013-12-21 16:48:00,64.4,62.6,29.52,SSW,202,3.7,-999.0,94,-99.99,,,0.61,Acu-Link.com,2013-12-21 21:48:00,
2013-12-21 17:04:00,64.0,62.2,29.51,SE,135,6.8,-999.0,94,-99.99,,,0.61,Acu-Link.com,2013-12-21 22:04:00,
2013-12-21 17:19:00,63.9,62.1,29.51,South,180,3.7,-999.0,94,-99.99,,,0.62,Acu-Link.com,2013-12-21 22:19:00,
2013-12-21 17:34:00,64.0,62.2,29.52,SSE,157,5.8,-999.0,94,-99.99,,,0.63,Acu-Link.com,2013-12-21 22:34:00,
2013-12-21 17:49:00,63.5,62.6,29.53,SW,225,9.4,-999.0,97,-99.99,,,0.63,Acu-Link.com,2013-12-21 22:49:00,
2013-12-21 18:05:00,63.0,62.4,29.51,SSW,202,5.8,-999.0,98,-99.99,,,0.64,Acu-Link.com,2013-12-21 23:05:00,
2013-12-21 18:20:00,63.1,62.5,29.50,SSE,157,7.3,-999.0,98,-99.99,,,0.64,Acu-Link.com,2013-12-21 23:20:00,
2013-12-21 18:35:00,63.3,62.4,29.49,SSE,157,7.8,-999.0,97,-99.99,,,0.64,Acu-Link.com,2013-12-21 23:35:00,
2013-12-21 18:50:00,63.3,62.4,29.49,SSE,157,5.3,-999.0,97,-99.99,,,0.64,Acu-Link.com,2013-12-21 23:50:00,
2013-12-21 19:05:00,63.7,62.5,29.48,South,180,4.7,-999.0,96,-99.99,,,0.64,Acu-Link.com,2013-12-22 00:05:00,
2013-12-21 19:20:00,64.4,62.6,29.48,ESE,112,6.3,-999.0,94,-99.99,,,0.64,Acu-Link.com,2013-12-22 00:20:00,
2013-12-21 19:35:00,64.9,62.5,29.46,SSE,157,9.4,-999.0,92,-99.99,,,0.64,Acu-Link.com,2013-12-22 00:35:00,
2013-12-21 19:51:00,65.3,62.6,29.45,ESE,112,11.4,-999.0,91,-99.99,,,0.64,Acu-Link.com,2013-12-22 00:51:00,
2013-12-21 20:06:00,66.0,63.0,29.44,SSE,157,9.9,-999.0,90,-99.99,,,0.64,Acu-Link.com,2013-12-22 01:06:00,
2013-12-21 20:21:00,66.4,63.1,29.42,SSW,202,7.3,-999.0,89,-99.99,,,0.64,Acu-Link.com,2013-12-22 01:21:00,
2013-12-21 20:36:00,66.9,63.2,29.41,ESE,112,14.5,-999.0,88,-99.99,,,0.64,Acu-Link.com,2013-12-22 01:36:00,
2013-12-21 20:51:00,67.3,63.6,29.40,South,180,7.8,-999.0,88,-99.99,,,0.64,Acu-Link.com,2013-12-22 01:51:00,
2013-12-21 21:06:00,67.6,63.6,29.38,SSE,157,13.5,-999.0,87,-99.99,,,0.64,Acu-Link.com,2013-12-22 02:06:00,
2013-12-21 21:21:00,67.5,63.2,29.38,SE,135,6.8,-999.0,86,-99.99,,,0.64,Acu-Link.com,2013-12-22 02:21:00,
2013-12-21 21:36:00,67.6,63.3,29.37,SSW,202,8.3,-999.0,86,-99.99,,,0.64,Acu-Link.com,2013-12-22 02:36:00,
2013-12-21 21:51:00,68.5,63.8,29.36,SSE,157,16.1,-999.0,85,-99.99,,,0.64,Acu-Link.com,2013-12-22 02:51:00,
2013-12-21 22:07:00,69.1,63.7,29.35,South,180,9.4,-999.0,83,-99.99,,,0.64,Acu-Link.com,2013-12-22 03:07:00,
2013-12-21 22:22:00,69.4,63.7,29.35,SSW,202,15.0,-999.0,82,-99.99,,,0.65,Acu-Link.com,2013-12-22 03:22:00,
2013-12-21 22:37:00,69.4,64.0,29.36,South,180,6.8,-999.0,83,-99.99,,,0.65,Acu-Link.com,2013-12-22 03:37:00,
2013-12-21 22:52:00,69.4,64.0,29.37,SW,225,12.5,-999.0,83,-99.99,,,0.65,Acu-Link.com,2013-12-22 03:52:00,
2013-12-21 23:07:00,70.0,64.2,29.36,SE,135,17.6,-999.0,82,-99.99,,,0.65,Acu-Link.com,2013-12-22 04:07:00,
2013-12-21 23:22:00,70.0,64.2,29.35,South,180,8.9,-999.0,82,-99.99,,,0.65,Acu-Link.com,2013-12-22 04:22:00,
2013-12-21 23:37:00,70.2,64.4,29.44,WSW,247,14.0,-999.0,82,-99.99,,,0.66,Acu-Link.com,2013-12-22 04:37:00,
2013-12-21 23:53:00,58.1,57.8,29.46,West,270,12.5,-999.0,99,-99.99,,,0.79,Acu-Link.com,2013-12-22 04:53:00,